Mornington Island Airport Observation History
Time Wind Speed Temp Pressure Rel. Hum Rain
30/09:30am E 11-15 kts 30.9°c 1011.6 hPa 70% 0.0mm
30/09:00am ESE 8-11 kts 30.3°c 1011.4 hPa 69% 0.0mm
30/08:30am ENE 6-9 kts 29.1°c 1011.2 hPa 73% 0.0mm
30/08:00am NE 6-8 kts 27.5°c 1010.7 hPa 76% 0.0mm
30/07:30am ESE 6-8 kts 26.7°c 1010.4 hPa 80% 0.0mm
30/07:00am ENE 7-10 kts 25.7°c 1010.0 hPa 87% 0.0mm
30/06:30am N 2-3 kts 26.3°c 1009.7 hPa 91% 0.0mm
30/06:00am N 3-5 kts 26.1°c 1009.5 hPa 92% 0.0mm
30/05:30am CALM 0 kts 26.3°c 1009.1 hPa 93% 0.0mm
30/05:00am CALM 0 kts 26.4°c 1008.7 hPa 92% 0.0mm
30/04:30am CALM 0 kts 26.3°c 1008.4 hPa 93% 0.0mm
30/04:00am CALM 0 kts 26.7°c 1008.2 hPa 92% 0.0mm
30/03:30am CALM 0 kts 26.7°c 1008.4 hPa 92% 0.0mm
30/03:00am CALM 0 kts 26.5°c 1008.6 hPa 91% 0.0mm
30/02:30am CALM 0 kts 26.5°c 1008.7 hPa 91% 0.0mm
30/02:00am CALM 0 kts 26.6°c 1009.0 hPa 91% 0.0mm
30/01:30am N 2-4 kts 26.6°c 1009.2 hPa 91% 0.0mm
30/01:00am CALM 0 kts 26.7°c 1009.4 hPa 92% 0.0mm
30/12:30am CALM 0-3 kts 26.6°c 1009.6 hPa 90% 0.0mm
30/12:00am CALM 0-5 kts 26.8°c 1009.8 hPa 90% 0.0mm
Time Wind Speed Temp Pressure Rel. Hum Rain
29/11:30pm N 5-6 kts 26.8°c 1009.9 hPa 90% 0.0mm
29/11:00pm N 4-5 kts 27.0°c 1010.0 hPa 89% 0.0mm
29/10:30pm N 4-5 kts 27.1°c 1010.0 hPa 88% 0.0mm
29/10:00pm N 4-5 kts 27.4°c 1010.0 hPa 87% 0.0mm
29/09:30pm N 3-4 kts 27.8°c 1009.8 hPa 85% 0.0mm
29/09:00pm N 3-4 kts 27.8°c 1009.5 hPa 84% 0.0mm
29/08:30pm N 4-5 kts 27.8°c 1009.3 hPa 84% 0.0mm
29/08:00pm N 5-6 kts 28.0°c 1009.1 hPa 83% 0.0mm
29/07:30pm N 5-7 kts 28.4°c 1008.9 hPa 81% 0.0mm
29/07:00pm E 4-5 kts 29.1°c 1008.9 hPa 77% 0.0mm
29/06:30pm E 7-9 kts 30.4°c 1008.7 hPa 70% 0.0mm
29/06:00pm E 5-7 kts 31.6°c 1008.5 hPa 67% 0.0mm
29/05:30pm W 5-6 kts 32.0°c 1008.4 hPa 63% 0.0mm
29/05:00pm WNW 4-6 kts 32.2°c 1008.3 hPa 64% 0.0mm
29/04:30pm N 4-6 kts 31.9°c 1008.2 hPa 62% 0.0mm
29/04:00pm N 4-5 kts 30.5°c 1008.1 hPa 69% 0.0mm
29/03:30pm NNW 10-12 kts 31.0°c 1008.1 hPa 66% 0.0mm
29/03:00pm NW 8-11 kts 31.3°c 1008.1 hPa 64% 0.0mm
29/02:30pm NW 7-9 kts 32.0°c 1008.4 hPa 63% 0.0mm
29/02:00pm N 7-11 kts 30.8°c 1008.6 hPa 71% 0.0mm
29/01:30pm NW 8-11 kts 32.4°c 1008.7 hPa 62% 0.0mm
29/01:00pm NW 9-13 kts 32.8°c 1009.1 hPa 62% 0.0mm
29/12:30pm NW 7-9 kts 31.7°c 1009.4 hPa 65% 0.0mm
29/12:00pm SE 5-9 kts 32.6°c 1009.7 hPa 56% 0.0mm
29/11:30am SE 5-7 kts 32.5°c 1010.0 hPa 59% 0.0mm
29/11:00am ESE 6-10 kts 31.7°c 1010.3 hPa 62% 0.0mm
29/10:30am E 5-7 kts 31.8°c 1010.6 hPa 63% 0.0mm
29/10:00am SE 5-10 kts 31.4°c 1010.8 hPa 64% 0.0mm
29/09:30am ESE 6-8 kts 31.6°c 1010.8 hPa 68% 0.0mm
29/09:00am ESE 7-9 kts 30.6°c 1010.6 hPa 70% 0.0mm
29/08:30am E 4-5 kts 29.7°c 1010.2 hPa 80% 0.0mm
29/08:00am E 3-4 kts 28.3°c 1010.0 hPa 88% 0.0mm
29/07:30am E 3-4 kts 26.7°c 1009.8 hPa 94% 0.0mm
29/07:00am E 4 kts 26.1°c 1009.5 hPa 95% 0.0mm
29/06:30am E 4-5 kts 25.8°c 1009.0 hPa 95% 0.0mm
29/06:00am CALM 0 kts 25.4°c 1008.7 hPa 93% 0.0mm
29/05:30am E 3-4 kts 25.5°c 1008.4 hPa 94% 0.0mm
29/05:00am CALM 0 kts 25.6°c 1008.1 hPa 93% 0.0mm
29/04:30am CALM 0 kts 25.6°c 1007.9 hPa 93% 0.0mm
29/04:00am CALM 0 kts 25.6°c 1007.8 hPa 92% 0.0mm
29/03:30am CALM 0 kts 25.6°c 1007.8 hPa 92% 0.0mm
29/03:00am CALM 0 kts 25.9°c 1007.9 hPa 92% 0.0mm
29/02:30am CALM 0 kts 26.0°c 1008.1 hPa 91% 0.0mm
29/02:00am CALM 0 kts 26.1°c 1008.4 hPa 91% 0.0mm
29/01:30am CALM 0 kts 26.2°c 1008.8 hPa 90% 0.0mm
29/01:00am CALM 0 kts 26.7°c 1009.0 hPa 89% 0.0mm
29/12:30am CALM 0 kts 26.6°c 1009.2 hPa 89% 0.0mm
29/12:00am CALM 0 kts 27.0°c 1009.3 hPa 89% 0.0mm
Time Wind Speed Temp Pressure Rel. Hum Rain
28/11:30pm CALM 0 kts 26.7°c 1009.5 hPa 90% 0.0mm
28/11:00pm CALM 0 kts 26.7°c 1009.5 hPa 88% 0.0mm
28/10:30pm CALM 0 kts 26.8°c 1009.7 hPa 87% 0.0mm
28/10:00pm CALM 0 kts 26.8°c 1009.7 hPa 86% 0.0mm
28/09:30pm CALM 0 kts 26.9°c 1009.6 hPa 86% 0.0mm
28/09:00pm CALM 0 kts 27.1°c 1009.2 hPa 84% 0.0mm
28/08:30pm CALM 0 kts 27.6°c 1009.0 hPa 82% 0.0mm
28/08:00pm E 3-4 kts 28.2°c 1008.7 hPa 80% 0.0mm
28/07:30pm E 4-5 kts 28.6°c 1008.5 hPa 78% 0.0mm
28/07:00pm E 5-7 kts 29.5°c 1008.5 hPa 74% 0.0mm
28/06:30pm ESE 6-8 kts 30.4°c 1008.2 hPa 68% 0.0mm
28/06:00pm NW 5-7 kts 31.1°c 1008.0 hPa 70% 0.0mm
28/05:30pm WNW 5-7 kts 31.1°c 1007.9 hPa 70% 0.0mm
28/05:00pm WNW 6-8 kts 31.5°c 1007.9 hPa 69% 0.0mm
28/04:30pm NW 7-10 kts 31.6°c 1007.8 hPa 68% 0.0mm
28/04:00pm NW 7-10 kts 32.0°c 1007.9 hPa 65% 0.0mm
28/03:30pm NW 8-10 kts 31.9°c 1008.2 hPa 67% 0.0mm
28/03:00pm NNW 8-11 kts 31.9°c 1008.6 hPa 67% 0.0mm
28/02:30pm NW 9-12 kts 32.3°c 1008.7 hPa 67% 0.0mm
28/02:00pm NNW 8-10 kts 31.7°c 1009.2 hPa 68% 0.0mm
28/01:30pm NW 7-9 kts 31.6°c 1009.4 hPa 67% 0.0mm
28/01:00pm NW 9-12 kts 30.8°c 1009.6 hPa 72% 0.0mm
28/12:30pm NW 7-11 kts 31.8°c 1010.2 hPa 69% 0.0mm
28/12:00pm NW 7-10 kts 31.5°c 1010.6 hPa 67% 0.0mm
28/11:30am WNW 8-10 kts 31.3°c 1011.0 hPa 66% 0.0mm
28/11:00am NNW 5-8 kts 31.4°c 1011.2 hPa 68% 0.0mm
28/10:30am NE 5-8 kts 31.6°c 1011.6 hPa 63% 0.0mm
28/10:00am SE 6-8 kts 30.8°c 1011.7 hPa 59% 0.0mm
28/09:30am E 5-7 kts 30.7°c 1011.6 hPa 65% 0.0mm
28/09:00am ENE 5-6 kts 29.4°c 1011.7 hPa 78% 0.0mm
28/08:30am CALM 0 kts 29.6°c 1011.3 hPa 79% 0.0mm
28/08:00am ENE 3-4 kts 28.5°c 1010.6 hPa 87% 0.0mm
28/07:30am ENE 4-5 kts 26.6°c 1010.3 hPa 90% 0.0mm
28/07:00am ENE 3-4 kts 25.9°c 1010.2 hPa 93% 0.0mm
28/06:30am ENE 3-4 kts 25.8°c 1010.0 hPa 93% 0.0mm
28/06:00am ENE 5 kts 25.8°c 1009.6 hPa 93% 0.0mm
28/05:30am W 3-5 kts 26.1°c 1009.3 hPa 92% 0.0mm
28/05:00am W 4-5 kts 26.7°c 1009.0 hPa 91% 0.0mm
28/04:30am CALM 0 kts 26.3°c 1008.7 hPa 91% 0.0mm
28/04:00am W 1-3 kts 26.6°c 1008.7 hPa 91% 0.0mm
28/03:30am W 3-4 kts 27.0°c 1008.6 hPa 91% 0.0mm
28/03:00am W 1-4 kts 26.7°c 1008.9 hPa 89% 0.0mm
28/02:52am CALM 0 kts 26.9°c 1009.0 hPa 89% 0.0mm
28/02:32am CALM 0 kts 27.1°c 1009.1 hPa 88% 0.0mm
28/02:30am CALM 0 kts 27.0°c 1009.1 hPa 88% 0.0mm
28/02:00am CALM 0 kts 27.1°c 1009.4 hPa 87% 0.0mm
28/01:30am CALM 0 kts 27.6°c 1009.4 hPa 85% 0.0mm
28/01:00am W 4-5 kts 28.2°c 1009.7 hPa 83% 0.0mm
28/12:30am W 5 kts 28.4°c 1009.9 hPa 81% 0.0mm
28/12:00am W 5-7 kts 28.6°c 1010.2 hPa 80% 0.0mm